EA2AFZ-W Weather Reports


time (UTC)temp
C
wind
direction
speed
KPH
gust
KPH
rain 1hr
cm
rain 24hr
cm
rain mn
cm
humidity
%
barometer
mb
20260506154544 15 320 17.7 17.7 0.00 0.00 0.00 81 1014.0
20260506151541 15 320 17.7 17.7 0.00 0.00 0.00 75 1014.0
20260506144539 15 320 17.7 17.7 0.00 0.00 0.00 69 1014.0
20260506141538 15 320 17.7 17.7 0.00 0.00 0.00 62 1015.0
20260506134535 14 300 24.1 24.1 0.00 0.00 0.00 61 1015.0
20260506131533 14 300 25.7 25.7 0.00 0.00 0.00 60 1015.0
20260506124531 14 310 20.9 20.9 0.00 0.00 0.00 60 1015.0
20260506121528 14 310 20.9 20.9 0.00 0.00 0.00 59 1015.0
20260506114526 14 300 20.9 20.9 0.00 0.00 0.00 61 1015.0
20260506111524 14 300 20.9 20.9 0.00 0.00 0.00 59 1014.0
20260506104522 14 300 20.9 20.9 0.00 0.00 0.00 59 1014.0
20260506101519 14 300 20.9 20.9 0.00 0.00 0.00 59 1014.0
20260506094517 15 310 19.3 19.3 0.00 0.00 0.00 59 1014.0
20260506091516 14 290 16.1 16.1 0.00 0.00 0.00 59 1014.0
20260506084513 15 24 12.9 12.9 0.00 0.00 0.00 59 1014.0
20260506081511 12 0 4.8 4.8 0.00 0.00 0.00 64 1014.0
20260506071509 11 0 3.2 3.2 0.00 0.00 0.00 88 1014.0
20260506061605 10 300 29.0 29.0 0.00 0.00 0.00 80 1014.0
20260506044558 10 300 29.0 29.0 0.00 0.00 0.00 83 1014.0
20260506041556 11 300 29.0 29.0 0.00 0.00 0.00 89 1013.0
20260506034554 11 300 29.0 29.0 0.00 0.00 0.00 91 1014.0
20260506031552 11 300 29.0 29.0 0.00 0.00 0.00 94 1013.0
20260506024549 11 300 29.0 29.0 0.00 0.00 0.00 95 1014.0
20260506021548 11 300 29.0 29.0 0.00 0.00 0.00 92 1014.0
20260506014546 10 300 29.0 29.0 0.00 0.00 0.00 94 1014.0
20260506011544 11 300 29.0 29.0 0.00 0.00 0.00 97 1014.0
20260506004541 11 300 29.0 29.0 0.00 0.00 0.00 96 1014.0
20260506001539 11 300 29.0 29.0 0.00 0.00 0.00 96 1014.0
20260505234536 11 300 29.0 29.0 0.00 0.00 0.00 96 1014.0
20260505231534 11 300 29.0 29.0 0.00 0.00 0.00 96 1014.0
20260505224533 11 300 29.0 29.0 0.00 0.00 0.00 96 1015.0
20260505221530 11 300 29.0 29.0 0.00 0.00 0.00 95 1014.0
20260505214528 11 300 29.0 29.0 0.00 0.00 0.00 93 1015.0
20260505211526 12 300 29.0 29.0 0.00 0.00 0.00 92 1015.0
20260505204523 12 300 29.0 29.0 0.00 0.00 0.00 84 1015.0
20260505201521 12 300 29.0 29.0 0.00 0.00 0.00 85 1014.0
20260505194519 12 300 29.0 29.0 0.00 0.00 0.00 78 1014.0
20260505191518 12 300 29.0 29.0 0.00 0.00 0.00 73 1014.0
20260505184515 13 300 29.0 29.0 0.00 0.00 0.00 67 1014.0
20260505181512 14 300 29.0 29.0 0.00 0.00 0.00 67 1014.0
20260505174510 13 300 29.0 29.0 0.00 0.00 0.00 70 1014.0
20260505171508 13 300 29.0 29.0 0.00 0.00 0.00 67 1014.0
20260505164506 13 300 29.0 29.0 0.00 0.00 0.00 67 1014.0
20260505161604 13 300 29.0 29.0 0.00 0.00 0.00 71 1014.0